Location: Unspecified
(0.0000°N, 0.0000°E)
Time: 00:49:51
(UTC+00:00)

Transit 4A - Visible Passes

Search period start: 20 June 2025 00:00
Search period end: 30 June 2025 00:00
Orbit: 867 x 975 km, 66.8° (Epoch: 19 June)

Date Brightness Start Highest point End Pass type
(mag) Time Alt. Az. Time Alt. Az. Time Alt. Az.
23 Jun 9.6 20:03:09 10° NNE 20:05:00 17° NNE 20:05:00 17° NNE visible
24 Jun 9.0 20:11:05 10° N 20:14:09 29° NNE 20:14:09 29° NNE visible
25 Jun 8.5 20:19:30 10° NNW 20:23:22 44° N 20:23:22 44° N visible
26 Jun 8.5 20:28:18 10° NNW 20:32:40 50° NW 20:32:40 50° NW visible
27 Jun 9.3 18:53:20 10° NNE 18:56:46 16° ENE 18:58:30 14° E visible
27 Jun 9.0 20:37:31 10° NW 20:42:01 35° W 20:42:01 35° W visible
28 Jun 8.7 19:00:41 10° NNE 19:05:32 28° ENE 19:07:55 21° ESE visible
28 Jun 9.7 20:47:16 10° WNW 20:51:27 21° WSW 20:51:27 21° WSW visible
29 Jun 8.0 19:08:45 10° N 19:14:18 48° ENE 19:17:24 25° SE visible
29 Jun 10.3 20:58:19 10° W 21:00:22 12° WSW 21:00:56 12° WSW visible
